Cold Bay, AK

3:48 AM AKDT on May 23, 2017 (GMT -0800)
Cold Bay

Weather History for PACD - September, 2013

Change the Weather History Date:

Thursday, September 26, 2013

  Actual Average Record
Temperature  
Mean Temperature 50 °F 46 °F  
Max Temperature 57 °F 51 °F 59 °F (1977)
Min Temperature 43 °F 41 °F 28 °F (2008)
Degree Days  
Heating Degree Days 15 19  
Month to date heating degree days 376 427  
Since 1 July heating degree days 1047 1266  
Cooling Degree Days 0 0  
Month to date cooling degree days 0 0  
Year to date cooling degree days 0 0  
Moisture  
Dew Point 45 °F    
Average Humidity 0    
Maximum Humidity 0    
Minimum Humidity 0    
Precipitation  
Precipitation 0.49 in 0.17 in 0.94 in (2013)
Month to date precipitation 4.39 4.07  
Year to date precipitation 32.34 26.81  
Snow  
Snow 0.00 in 0.00 in - ()
Month to date snowfall 0.0 0.0  
Since 1 July snowfall 0.0 0.0  
Since 1 September snowfall 0.0 0.0  
Snow Depth 0.00 in    
Sea Level Pressure  
Sea Level Pressure 29.49 in    
Wind  
Wind Speed 22 mph (SW)    
Max Wind Speed 35 mph    
Max Gust Speed 44 mph    
Visibility 7 miles    
Events Rain    
T = Trace of Precipitation, MM = Missing Value Source: NWS Daily Summary

Daily Weather History Graph

Daily Weather History Graph

Search for Another Location

Airport or City:

Trip Planner

Search our weather history database for the weather conditions in past years. The results will help you decide how hot, cold, wet, or windy it might be!

Date:

Astronomy

Sep. 26, 2013 Rise Set
Actual Time 8:44 AM AKDT 8:38 PM AKDT
Civil Twilight 8:08 AM AKDT 9:14 PM AKDT
Nautical Twilight 7:25 AM AKDT 9:56 PM AKDT
Astronomical Twilight 6:40 AM AKDT 10:41 PM AKDT
Moon 12:04 AM AKDT (9/26) 4:37 PM AKDT (9/26)
Length of Visible Light 13h 05m
Length of Day
11h 53m
Waning Gibbous, 53% of the Moon is Illuminated
Sep 26
Waning Gibbous
Sep 26
Last Quarter
Oct 4
New
Oct 11
First Quarter
Oct 18
Full

Hourly Weather History & Observations

Time (AKDT) Temp. Windchill Dew Point Humidity Pressure Visibility Wind Dir Wind Speed Gust Speed Precip Events Conditions
12:53 AM 44.1 °F 35.4 °F 39.9 °F 85% 29.95 in 10.0 mi WNW 21.9 mph 29.9 mph 0.00 in   Mostly Cloudy
1:53 AM 44.1 °F 36.8 °F 39.0 °F 82% 29.98 in 10.0 mi WNW 16.1 mph - 0.01 in   Mostly Cloudy
2:15 AM 44.6 °F 37.8 °F 39.2 °F 81% 29.98 in 10.0 mi WNW 15.0 mph - N/A   Overcast
2:53 AM 46.0 °F 39.9 °F 37.9 °F 73% 29.98 in 10.0 mi WNW 13.8 mph - N/A   Overcast
3:53 AM 45.0 °F 38.2 °F 37.9 °F 76% 29.95 in 10.0 mi West 15.0 mph - N/A   Overcast
4:53 AM 45.0 °F 39.3 °F 37.9 °F 76% 29.93 in 10.0 mi SW 11.5 mph - N/A   Overcast
5:53 AM 44.1 °F 38.1 °F 37.0 °F 76% 29.91 in 10.0 mi SW 11.5 mph - N/A   Scattered Clouds
6:53 AM 45.0 °F 41.8 °F 36.0 °F 71% 29.86 in 10.0 mi SE 5.8 mph - N/A   Overcast
7:53 AM 45.0 °F 37.4 °F 39.0 °F 80% 29.80 in 10.0 mi SE 18.4 mph 23.0 mph 0.01 in Rain Light Rain
8:53 AM 46.0 °F 37.2 °F 42.1 °F 86% 29.72 in 7.0 mi SSE 26.5 mph 33.4 mph 0.07 in Rain Rain
9:53 AM 46.9 °F - 44.1 °F 90% 29.65 in 6.0 mi SSE 32.2 mph 40.3 mph 0.05 in Rain Light Rain
10:10 AM 48.2 °F - 44.6 °F 87% 29.63 in 9.0 mi SSE 32.2 mph 41.4 mph 0.00 in Rain Light Rain
10:53 AM 48.9 °F - 46.0 °F 90% 29.62 in 8.0 mi SSE 23.0 mph 35.7 mph 0.03 in Rain Light Rain
11:17 AM 50.0 °F - 48.2 °F 94% 29.60 in 7.0 mi SSE 15.0 mph 29.9 mph 0.01 in Rain Light Rain
11:53 AM 51.1 °F - 48.0 °F 89% 29.58 in 7.0 mi South 11.5 mph - 0.04 in Rain Light Rain
12:35 PM 55.4 °F - 50.0 °F 82% 29.53 in 10.0 mi South 9.2 mph - 0.03 in Rain Light Rain
12:53 PM 53.1 °F - 48.0 °F 83% 29.50 in 9.0 mi SW 8.1 mph 21.9 mph 0.04 in Rain Light Rain
1:53 PM 53.1 °F - 48.9 °F 86% 29.46 in 4.0 mi SSE 13.8 mph - 0.06 in Rain Rain
2:53 PM 57.0 °F - 50.0 °F 77% 29.40 in 4.0 mi SW 20.7 mph 29.9 mph 0.16 in Rain Rain
3:50 PM 55.4 °F - 50.0 °F 82% 29.36 in 4.0 mi SW 25.3 mph 36.8 mph 0.15 in Rain Rain
3:53 PM 55.9 °F - 50.0 °F 80% 29.35 in 4.0 mi SW 21.9 mph 36.8 mph 0.16 in Rain Rain
4:37 PM 55.4 °F - 50.0 °F 82% 29.33 in 3.0 mi SW 23.0 mph 32.2 mph 0.09 in Rain Heavy Rain
4:53 PM 54.0 °F - 48.9 °F 83% 29.33 in 4.0 mi WSW 23.0 mph 38.0 mph 0.14 in Rain Heavy Rain
5:02 PM 53.6 °F - 48.2 °F 82% 29.31 in 4.0 mi WSW 25.3 mph 33.4 mph 0.02 in Rain Heavy Rain
5:35 PM 53.6 °F - 50.0 °F 88% 29.29 in 7.0 mi WSW 27.6 mph 35.7 mph 0.10 in Rain Light Rain
5:53 PM 54.0 °F - 50.0 °F 86% 29.27 in 4.0 mi SW 26.5 mph 35.7 mph 0.10 in Rain Light Rain
6:53 PM 53.1 °F - 48.9 °F 86% 29.21 in 4.0 mi WSW 34.5 mph 46.0 mph 0.07 in Rain Light Rain
7:53 PM 52.0 °F - 48.0 °F 86% 29.15 in 10.0 mi WSW 31.1 mph 47.2 mph 0.00 in   Overcast
8:53 PM 52.0 °F - 48.0 °F 86% 29.13 in 10.0 mi WSW 35.7 mph 51.8 mph N/A   Overcast
9:13 PM 51.8 °F - 48.2 °F 88% 29.13 in 2.5 mi WSW 42.6 mph 51.8 mph 0.00 in Rain Light Rain
9:22 PM 51.8 °F - 48.2 °F 88% 29.13 in 3.0 mi WSW 41.4 mph 56.4 mph 0.00 in Rain Light Rain
9:53 PM 50.0 °F - 48.0 °F 93% 29.15 in 6.0 mi West 38.0 mph 50.6 mph 0.00 in Rain Light Rain
10:26 PM 50.0 °F - 46.4 °F 87% 29.19 in 8.0 mi West 34.5 mph 48.3 mph 0.00 in   Overcast
10:39 PM 50.0 °F - 46.4 °F 87% 29.19 in 10.0 mi West 36.8 mph 47.2 mph 0.00 in   Overcast
10:53 PM 50.0 °F - 45.0 °F 83% 29.21 in 8.0 mi West 36.8 mph 46.0 mph 0.00 in Rain Light Rain
11:04 PM 48.2 °F - 44.6 °F 87% 29.21 in 9.0 mi West 33.4 mph 44.9 mph 0.00 in Rain Light Rain
11:53 PM 48.9 °F - 43.0 °F 80% 29.22 in 10.0 mi West 36.8 mph 47.2 mph 0.00 in   Overcast